Starlink 30766

operational
NORAD ID: 58125 Int'l Des: 2023-162 Owner: SPXS Country: US Constellation: starlink
LEOCIRCULAR

About Starlink 30766

Description loading...

Live Position

Loading 3D Globe...

Upcoming Passes

Altitude History

Altitude vs Time

uPlot chart will show altitude changes over time

Two-Line Element Set

1 58125U 23162H 25350.01281724 -.00001099 00000-0 -66354-4 0 9994
2 58125 43.0030 227.6998 0001040 274.2607 85.8116 15.02510906119716
Epoch: Dec 16, 2025 • Age: 33 hours

Current Status

Altitude 559.8 km
Velocity 7.59 km/s
Sub-Earth Point 26.30°N, 149.74°E
Launch Date Oct 22, 2023
Age 2.1 years
Type internet

Technical Details

Classification Payload
Mass 730.00 kg
Dry Mass 700.00 kg
Total Mass 730.00 kg
Length 0.30 m
Diameter 4.10 m
Span 29.00 m
Shape Box + pan
Manufacturer SPXS
Bus Type Starlink V2M
Phase Status In Orbit
Owner/State SPXS/US

Large Constellations

Loading constellations...